Weather History for KSFF - April, 2014

Change the Weather History Date:

Friday, April 11, 2014

  Actual Average Record
Temperature  
Mean Temperature 50 °F 46 °F  
Max Temperature 64 °F 57 °F 71 °F (2004)
Min Temperature 36 °F 36 °F 26 °F (1997)
Degree Days  
Heating Degree Days 15 19  
Month to date heating degree days 180 215  
Since 1 July heating degree days 5592 5536  
Cooling Degree Days 0 0  
Month to date cooling degree days 0 0  
Year to date cooling degree days 0 0  
Moisture  
Dew Point 29 °F    
Average Humidity 51    
Maximum Humidity 76    
Minimum Humidity 25    
Precipitation  
Precipitation 0.00 in 0.04 in 0.32 in (2002)
Month to date precipitation 0.09 0.53  
Year to date precipitation 5.54 5.43  
Sea Level Pressure  
Sea Level Pressure 29.92 in    
Wind  
Wind Speed 8 mph (West)    
Max Wind Speed 22 mph    
Max Gust Speed 29 mph    
Visibility 10 miles    
Events      
T = Trace of Precipitation, MM = Missing Value Source: NWS Daily Summary

Daily Weather History Graph

Daily Weather History Graph

Search for Another Location

Airport or City:

Trip Planner

Search our weather history database for the weather conditions in past years. The results will help you decide how hot, cold, wet, or windy it might be!

Date:

Astronomy

Apr. 11, 2014 Rise Set
Actual Time 6:07 AM PDT 7:33 PM PDT
Civil Twilight 5:35 AM PDT 8:05 PM PDT
Nautical Twilight 4:57 AM PDT 8:44 PM PDT
Astronomical Twilight 4:15 AM PDT 9:26 PM PDT
Moon 4:05 PM PDT (4/11) 4:20 AM PDT (4/11)
Length of Visible Light 14h 29m
Length of Day
13h 25m
Waxing Gibbous, 87% of the Moon is Illuminated
Apr 11
Waxing Gibbous
Apr 15
Full
Apr 22
Last Quarter
Apr 28
New
May 6
First Quarter

Hourly Weather History & Observations

Time (PDT) Temp. Windchill Dew Point Humidity Pressure Visibility Wind Dir Wind Speed Gust Speed Precip Events Conditions
12:53 AM 41.0 °F 37.1 °F 28.0 °F 60% 30.03 in 10.0 mi ENE 5.8 mph - N/A   Clear
1:53 AM 39.0 °F 35.7 °F 28.0 °F 65% 30.01 in 10.0 mi NE 4.6 mph - N/A   Clear
2:53 AM 39.9 °F 36.7 °F 28.0 °F 63% 30.00 in 10.0 mi NE 4.6 mph - N/A   Clear
3:53 AM 39.0 °F 34.8 °F 28.9 °F 67% 29.99 in 10.0 mi NE 5.8 mph - N/A   Clear
4:53 AM 39.0 °F 36.8 °F 30.0 °F 70% 29.99 in 10.0 mi NE 3.5 mph - N/A   Overcast
5:53 AM 37.9 °F 35.5 °F 30.0 °F 73% 29.99 in 10.0 mi NE 3.5 mph - N/A   Scattered Clouds
6:53 AM 39.0 °F 36.8 °F 30.0 °F 70% 29.98 in 10.0 mi NNE 3.5 mph - N/A   Clear
7:53 AM 46.0 °F 41.9 °F 30.0 °F 54% 29.98 in 10.0 mi SW 8.1 mph - N/A   Clear
8:53 AM 48.0 °F - 30.0 °F 50% 29.99 in 10.0 mi SSW 8.1 mph - N/A   Clear
9:53 AM 53.1 °F - 30.9 °F 43% 29.98 in 10.0 mi SW 11.5 mph - N/A   Clear
10:53 AM 55.9 °F - 32.0 °F 40% 29.96 in 10.0 mi WSW 10.4 mph 21.9 mph N/A   Clear
11:53 AM 59.0 °F - 32.0 °F 36% 29.94 in 10.0 mi SW 15.0 mph - N/A   Partly Cloudy
12:53 PM 61.0 °F - 32.0 °F 34% 29.91 in 10.0 mi SSW 18.4 mph 25.3 mph N/A   Scattered Clouds
1:53 PM 63.0 °F - 32.0 °F 31% 29.88 in 10.0 mi WSW 11.5 mph 20.7 mph N/A   Mostly Cloudy
2:53 PM 62.1 °F - 30.9 °F 31% 29.86 in 10.0 mi West 13.8 mph 18.4 mph N/A   Mostly Cloudy
3:53 PM 62.1 °F - 27.0 °F 26% 29.85 in 10.0 mi West 13.8 mph 19.6 mph N/A   Mostly Cloudy
4:53 PM 63.0 °F - 30.0 °F 29% 29.84 in 10.0 mi WSW 6.9 mph 21.9 mph N/A   Scattered Clouds
5:53 PM 63.0 °F - 28.9 °F 28% 29.82 in 10.0 mi WSW 10.4 mph - N/A   Partly Cloudy
6:53 PM 62.1 °F - 27.0 °F 26% 29.81 in 10.0 mi West 5.8 mph - N/A   Partly Cloudy
7:53 PM 59.0 °F - 25.0 °F 27% 29.81 in 10.0 mi WNW 6.9 mph - N/A   Clear
8:53 PM 55.9 °F - 21.0 °F 26% 29.84 in 10.0 mi SSW 4.6 mph - N/A   Clear
9:53 PM 48.9 °F - 26.1 °F 41% 29.84 in 10.0 mi West 3.5 mph - N/A   Clear
10:53 PM 48.0 °F - 25.0 °F 41% 29.84 in 10.0 mi West 9.2 mph - N/A   Clear
11:53 PM 44.1 °F 41.5 °F 25.0 °F 47% 29.86 in 10.0 mi SSW 4.6 mph - N/A   Clear